Greensboro, NC

1:37 PM EST on February 23, 2017 (GMT -0500)
Piedmont Triad International

Weather History for KGSO - May, 2013

Change the Weather History Date:

Wednesday, May 15, 2013

  Actual Average Record
Temperature  
Mean Temperature 72 °F 66 °F  
Max Temperature 87 °F 77 °F 92 °F (1962)
Min Temperature 56 °F 56 °F 37 °F (1910)
Degree Days  
Heating Degree Days 0 2  
Month to date heating degree days 84 46  
Since 1 July heating degree days 3624 3592  
Cooling Degree Days 7 4  
Month to date cooling degree days 18 39  
Year to date cooling degree days 55 77  
Growing Degree Days 21 (Base 50)    
Moisture  
Dew Point 53 °F    
Average Humidity 55    
Maximum Humidity 72    
Minimum Humidity 37    
Precipitation  
Precipitation 0.00 in 0.10 in 1.99 in (1934)
Month to date precipitation 2.23 1.57  
Year to date precipitation 17.50 14.89  
Snow  
Snow 0.00 in 0.00 in - ()
Month to date snowfall 0.0 0.0  
Since 1 July snowfall 3.6 7.5  
Snow Depth 0.00 in    
Sea Level Pressure  
Sea Level Pressure 29.98 in    
Wind  
Wind Speed 10 mph (SW)    
Max Wind Speed 18 mph    
Max Gust Speed 24 mph    
Visibility 10 miles    
Events      
T = Trace of Precipitation, MM = Missing Value Source: NWS Daily Summary

Daily Weather History Graph

Daily Weather History Graph

Search for Another Location

Airport or City:

Trip Planner

Search our weather history database for the weather conditions in past years. The results will help you decide how hot, cold, wet, or windy it might be!

Date:

Astronomy

May. 15, 2013 Rise Set
Actual Time 6:13 AM EDT 8:19 PM EDT
Civil Twilight 5:45 AM EDT 8:47 PM EDT
Nautical Twilight 5:10 AM EDT 9:22 PM EDT
Astronomical Twilight 4:32 AM EDT 10:00 PM EDT
Moon 10:46 AM EDT (5/15) 12:05 AM EDT (5/15)
Length of Visible Light 15h 02m
Length of Day
14h 05m
Waxing Crescent, 26% of the Moon is Illuminated
May 15
Waxing Crescent
May 18
First Quarter
May 25
Full
May 31
Last Quarter
Jun 8
New

Hourly Weather History & Observations

Time (EDT) Temp. Heat Index Dew Point Humidity Pressure Visibility Wind Dir Wind Speed Gust Speed Precip Events Conditions
12:54 AM 60.1 °F - 42.1 °F 51% 30.03 in 10.0 mi SW 12.7 mph - N/A   Clear
1:54 AM 60.1 °F - 42.1 °F 51% 30.03 in 10.0 mi SW 10.4 mph - N/A   Clear
2:54 AM 57.9 °F - 43.0 °F 58% 30.03 in 10.0 mi SW 8.1 mph - N/A   Clear
3:54 AM 57.0 °F - 44.1 °F 62% 30.01 in 10.0 mi SSW 8.1 mph - N/A   Clear
4:54 AM 57.9 °F - 45.0 °F 62% 30.01 in 10.0 mi SW 10.4 mph - N/A   Clear
5:54 AM 55.9 °F - 46.0 °F 69% 30.03 in 10.0 mi SSW 8.1 mph - N/A   Clear
6:54 AM 57.0 °F - 46.9 °F 69% 30.03 in 10.0 mi SW 10.4 mph - N/A   Scattered Clouds
7:54 AM 59.0 °F - 48.9 °F 69% 30.04 in 10.0 mi SW 12.7 mph - N/A   Mostly Cloudy
8:54 AM 61.0 °F - 51.1 °F 70% 30.04 in 10.0 mi SW 9.2 mph - N/A   Mostly Cloudy
9:54 AM 64.9 °F - 54.0 °F 68% 30.04 in 10.0 mi SSW 6.9 mph - N/A   Clear
10:54 AM 69.1 °F - 55.9 °F 63% 30.04 in 10.0 mi SSW 5.8 mph - N/A   Partly Cloudy
11:54 AM 75.9 °F - 57.9 °F 54% 30.03 in 10.0 mi SW 11.5 mph - N/A   Partly Cloudy
12:54 PM 81.0 °F 81.3 °F 59.0 °F 47% 30.00 in 10.0 mi SW 13.8 mph - N/A   Clear
1:54 PM 82.9 °F 82.8 °F 59.0 °F 44% 29.97 in 10.0 mi SW 11.5 mph 18.4 mph N/A   Clear
2:54 PM 84.9 °F 84.2 °F 57.9 °F 40% 29.95 in 10.0 mi SW 11.5 mph - N/A   Clear
3:54 PM 87.1 °F 86.5 °F 59.0 °F 39% 29.93 in 10.0 mi SW 13.8 mph 18.4 mph N/A   Clear
4:54 PM 86.0 °F 85.0 °F 57.9 °F 38% 29.91 in 10.0 mi SW 9.2 mph - N/A   Partly Cloudy
5:54 PM 86.0 °F 85.0 °F 57.9 °F 38% 29.90 in 10.0 mi SW 18.4 mph 24.2 mph N/A   Clear
6:54 PM 84.0 °F 83.8 °F 59.0 °F 43% 29.89 in 10.0 mi WSW 13.8 mph - N/A   Clear
7:54 PM 81.0 °F 81.3 °F 59.0 °F 47% 29.90 in 10.0 mi SW 9.2 mph - N/A   Clear
8:54 PM 79.0 °F - 57.9 °F 48% 29.91 in 10.0 mi SW 10.4 mph - N/A   Clear
9:54 PM 77.0 °F - 57.9 °F 52% 29.92 in 10.0 mi SW 10.4 mph - N/A   Clear
10:54 PM 72.0 °F - 59.0 °F 64% 29.93 in 10.0 mi SW 5.8 mph - N/A   Clear
11:54 PM 70.0 °F - 59.0 °F 68% 29.92 in 10.0 mi SSW 6.9 mph - N/A   Clear